Regional Weather Roundup
Issued by NWS

Home | Current Version | Previous Version | Text Only | Print | Product List | Glossary Off
Versions: 1 2 3 4 5 6 7 8 9 10 11 12 13 14 15 16 17 18 19 20 21 22 23 24 25 26 27 28 29 30 31 32 33 34 35 36 37 38 39 40 41 42 43 44 45 46 47 48 49 50

000
ASUS43 KDTX 041010
RWRMI
MICHIGAN HOURLY REGIONAL WEATHER ROUNDUP
NATIONAL WEATHER SERVICE DETROIT/PONTIAC MI
600 AM EDT MON MAY 04 2015

NOTE: "FAIR" INDICATES FEW OR NO CLOUDS BELOW 12,000 FEET WITH NO
SIGNIFICANT WEATHER AND/OR OBSTRUCTION TO VISIBILITY.

MIZ047>049-052>055-059>063-066>070-074>076-081>083-041100-
SOUTHEAST LOWER MICHIGAN

CITY           SKY/WX    TMP DP  RH WIND       PRES   REMARKS
ADRIAN         CLOUDY    62  48  60 SW9       30.03S
ALMA           RAIN      59  57  93 S6G17     29.96F
ANN ARBOR      LGT RAIN  59  50  72 SW5       30.03R
BAD AXE        MOCLDY    62  46  56 SW6       29.96S
CARO           CLOUDY    66  48  51 CALM      29.96R
DETROIT CITY   MOCLDY    64  48  56 SW9       30.02S
DETROIT        CLOUDY    64  49  57 S8        30.03R
FLINT          CLOUDY    68  47  46 SW7       29.99R
GROSSE ILE     MOCLDY    61  52  72 S9        30.02R
HILLSDALE      CLOUDY    62  48  60 S6        30.01F
HOWELL         LGT RAIN  62  51  68 SW10G17   30.01R

CITY           SKY/WX    TMP DP  RH WIND       PRES   REMARKS
JACKSON        CLOUDY    58  55  90 E5        30.00F
LAMBERTVILLE   CLOUDY    63  46  55 S8        30.03F
LANSING        CLOUDY    60  55  83 SE8       29.97F
LAPEER         MOCLDY    66  45  46 SW9       29.99S
MASON          RAIN      58  54  85 S9        29.98F
MONROE         MOCLDY    63  48  59 S7        30.02R
PONTIAC        CLOUDY    65  47  52 SW8       30.00S
PORT HOPE        N/A     65  46  50 SW7       29.93R
PORT HURON     MOCLDY    59  48  67 S6        30.01R
TRI CITIES     LGT RAIN  65  54  67 SW14      29.97R
MIDLAND        LGT RAIN  63  55  73 SW12G23   29.97R
TROY           MOCLDY    66  47  51 SW7       30.03R
SAGINAW HB     CLOUDY    64  52  63 SW15G21   29.96R
$$
MIZ043>046-050>051-056>058-064>065-071>073-077>080-041100-
SOUTHWEST LOWER MICHIGAN

CITY           SKY/WX    TMP DP  RH WIND       PRES   REMARKS
BATTLE CREEK   CLOUDY    61  52  72 S12       29.98R
BENTON HARBOR  CLOUDY    66  47  50 SW18G28   29.93R
BIG RAPIDS     CLOUDY    58  56  92 SE6       29.90F
COLDWATER      MOCLDY    63  46  55 S6        29.98F
FREMONT        FAIR      58  56  92 SE7       29.88F
HOLLAND        CLOUDY    62  51  67 S10       29.92F
GRAND RAPIDS   CLOUDY    59  54  83 S9        29.93S
IONIA          CLOUDY    60  56  88 SW6       29.96R
KALAMAZOO      TSTM      61  52  72 S6        29.97R
LUDINGTON      CLOUDY    56  53  91 CALM      29.90S
MARSHALL       CLOUDY    56  54  91 SE7       29.97F
MOUNT PLEASANT HVY RAIN  59  57  91 S9G16     29.94F
MUSKEGON       CLOUDY    57  46  66 S13       29.89F
SOUTH HAVEN    CLOUDY    67  46  46 SW13G21   29.93F
$$
MIZ016>042-041100-
NORTHERN LOWER MICHIGAN

CITY           SKY/WX    TMP DP  RH WIND       PRES   REMARKS
ALPENA         MOCLDY    61  46  57 SW6       29.89S
BEAVER ISLAND  RAIN      48  47  93 SW12      29.90S
BELLAIRE       LGT RAIN  60  53  78 SW7       29.90R
CADILLAC       CLOUDY    57  55  93 S6        29.89F
CHARLEVOIX     CLOUDY    60  53  77 SW13      29.92R
FRANKFORT      RAIN      57  52  82 CALM      29.88F
GAYLORD        CLOUDY    61  49  64 SW14      29.89F
GRAYLING       LGT RAIN  60  49  68 SW6       29.91F
HARBOR SPRINGS LGT RAIN  57  51  81 W6        29.88S
HOUGHTON LAKE  LGT RAIN  60  51  72 SW8       29.93F
MANISTEE       CLOUDY    54  50  87 SE5       29.90F
OSCODA         CLOUDY    60  52  74 SW8       29.92S
PELLSTON       CLOUDY    61  52  72 SW5       29.89R
ROGERS CITY    MOCLDY    58  51  76 S6        29.87S
TRAVERSE CITY  CLOUDY    60  55  83 CALM      29.89R
$$
MIZ007>008-015-041100-
EASTERN UPPER MICHIGAN

CITY           SKY/WX    TMP DP  RH WIND       PRES   REMARKS
KINROSS        CLOUDY    52  50  93 SW6       29.87R
MACKINAC ISLAN CLOUDY    48  47  99 W7        29.88R
NEWBERRY       CLOUDY    52  51  97 SW7       29.88R
S. S. MARIE    CLOUDY    55  53  93 SW7       29.86R
MUNISING         N/A     50  34  54 NW10      29.90R
$$
MIZ004>006-011>014-085-041100-
CENTRAL UPPER MICHIGAN

CITY           SKY/WX    TMP DP  RH WIND       PRES   REMARKS
MANISTIQUE     CLOUDY    54  52  93 W3        29.89R
ESCANABA       CLOUDY    54  52  94 CALM      29.91R
MENOMINEE      CLOUDY    57  54  88 NW3       29.90R
SAWYER-GWINN   CLOUDY    51  38  63 N6        29.91R
$$
MIZ001>003-009>011-084-041100-
WESTERN UPPER MICHIGAN

CITY           SKY/WX    TMP DP  RH WIND       PRES   REMARKS
IRON MOUNTAIN  CLOUDY    52  44  74 NW9       29.91R
HOUGHTON       PTCLDY    47  33  58 N13       29.94R
COPPER HARBOR    N/A     47  36  65 N14       29.92R
IRONWOOD       CLEAR     46  34  61 NW3       29.99R
$$

ABBREVIATIONS USED IN REMARKS
   TC - TEMPERATURE IN CELSIUS
  WCI - WIND CHILL INDEX
   HX - HEAT INDEX
  VSB - VISIBILITY



USA.gov is the U.S. government's official web portal to all federal, state and local government web resources and services.